This is the latest recevied weather packets stored in our database for station/object IU3NMQ-10. If no packets are shown the sender has not sent any weather packets the latest 1 day(s).
| Time | Temp. | Humidity | Pressure | Rain* | Wind** | Luminosity | Snow |
|---|---|---|---|---|---|---|---|
| 1778065322 | 17.22° C | 86% | 1008.3 hPa | - | - | - | - |
| 1778063790 | 17.22° C | 85% | 1008.5 hPa | - | - | - | - |
| 1778063007 | 17.78° C | 84% | 1008.5 hPa | - | - | - | - |
| 1778062687 | 17.78° C | 84% | 1008.5 hPa | - | - | - | - |
| 1778059921 | 18.33° C | 85% | 1008.5 hPa | - | - | - | - |
| 1778059054 | 17.78° C | 86% | 1008.4 hPa | - | - | - | - |
| 1778059021 | 17.78° C | 86% | 1008.4 hPa | - | - | - | - |
| 1778058121 | 17.78° C | 86% | 1008.4 hPa | - | - | - | - |
| 1778057221 | 17.22° C | 86% | 1008.2 hPa | - | - | - | - |
| 1778052720 | 16.67° C | 85% | 1008.1 hPa | - | - | - | - |
| 1778051820 | 16.67° C | 85% | 1008.3 hPa | - | - | - | - |
| 1778050920 | 16.67° C | 85% | 1008.3 hPa | - | - | - | - |
| 1778050020 | 16.11° C | 86% | 1008.3 hPa | - | - | - | - |
| 1778049120 | 16.11° C | 87% | 1008.4 hPa | - | - | - | - |
| 1778048219 | 16.11° C | 87% | 1008.2 hPa | - | - | - | - |
| 1778047319 | 15.56° C | 86% | 1008.4 hPa | - | - | - | - |
| 1778046419 | 15.56° C | 86% | 1008.3 hPa | - | - | - | - |
| 1778045519 | 16.11° C | 85% | 1008.5 hPa | - | - | - | - |
| 1778044619 | 15.56° C | 85% | 1008.5 hPa | - | - | - | - |
| 1778043719 | 15.56° C | 85% | 1008.4 hPa | - | - | - | - |
| 1778042819 | 15.56° C | 84% | 1008.2 hPa | - | - | - | - |
| 1778041919 | 15° C | 85% | 1008.2 hPa | - | - | - | - |
| 1778039218 | 15° C | 85% | 1008.5 hPa | - | - | - | - |
| 1778038318 | 15° C | 85% | 1008.7 hPa | - | - | - | - |
| 1778037418 | 15° C | 85% | 1008.9 hPa | - | - | - | - |
* Rain since midnight (hover to see other rain measurements)
** Current wind speed in m/s (hover to see current wind gust speed)